Location: Banios
(43.0451°N, 0.2335°E)
Time: 01:51:24
(UTC+00:00)

N. Korean satellite - Pass Details

Date: 23 April 2021
Orbit: 451 x 500 km, 97.2° (Epoch: 05 May)

Event Time Altitude Azimuth Distance (km) Brightness Sun altitude
Rises 04:19:27 0° 33° (NNE) 2,547 11.3 -8.4°
Reaches altitude 10° 04:22:31 10° 62° (ENE) 1,648 11.0 -7.9°
Maximum altitude 04:24:12 13° 91° (E) 1,463 10.1 -7.7°
Drops below altitude 10° 04:25:53 10° 120° (ESE) 1,627 9.8 -7.4°
Sets 04:28:51 0° 149° (SSE) 2,484 10.3 -6.9°
